ONEWEB-0240 (48785 NORAD) Tracking and Keplerian Element Data

This shows tracking and keplerian element data for the satellite.

Feedback or suggestion? Click here.




ElementValue
Catalog48785
NameONEWEB-0240
Epoch Orbit353
Epoch Day214.91667824
Epoch Year2021
RAAN254.7688
Inclination87.6304
Eccentricity0.0008826
Argument of Perigee43.7978
Mean Anonmoly31.5453
Mean Motion14.41690847
Decay Rate-0.01424306
L11 48785U 21045U 21214.91667824 -.01424306 00000-0 -46855+0 0 9996
L22 48785 87.6304 254.7688 0008826 43.7978 31.5453 14.41690847 3530

Live tracking and technical data element details for ONEWEB-0240 (NORAD 48785). ONEWEB-0240 can be tracked NOW for your location showing map with azimuth and elevation plus other details from your city location.

Track the satellite on the map from your city or location and see movement details for azimuth, elevation, latitude, longitude, range, height, and movement on the map or in text.







IsCatalogInMostPopularTable: catalog: 48785, numindb: 19
Update: records affected: 1



GetName: 48785 ONEWEB-0240

Hit Count: updated at: Tue, 03 Aug 2021 21:00:32 GMT